Time,TemperatureF,DewpointF,PressureIn,WindDirection,WindDirectionDegrees,WindSpeedMPH,WindSpeedGustMPH,Humidity,HourlyPrecipIn,Conditions,Clouds,dailyrainin,SoftwareType,DateUTC
2013-01-10 00:02:00,37.0,20.0,-100.00,NNE,20,0.0,2.0,49,-99.99,,,0.00,,2013-01-10 07:02:00,
2013-01-10 00:12:00,37.0,20.0,-100.00,NNE,20,0.0,2.0,49,-99.99,,,0.00,,2013-01-10 07:12:00,
2013-01-10 00:22:00,36.0,19.0,-100.00,SW,225,0.0,2.0,50,-99.99,,,0.00,,2013-01-10 07:22:00,
2013-01-10 00:32:00,36.0,19.0,-100.00,SW,225,0.0,2.0,50,-99.99,,,0.00,,2013-01-10 07:32:00,
2013-01-10 00:42:00,36.0,19.0,-100.00,SW,225,0.0,2.0,50,-99.99,,,0.00,,2013-01-10 07:42:00,
2013-01-10 00:52:00,36.0,20.0,-100.00,WSW,250,5.0,7.0,53,-99.99,,,0.00,,2013-01-10 07:52:00,
2013-01-10 01:01:00,36.0,20.0,-100.00,WSW,250,5.0,7.0,53,-99.99,,,0.00,,2013-01-10 08:01:00,
2013-01-10 01:11:00,36.0,21.0,-100.00,West,260,7.0,11.0,55,-99.99,,,0.00,,2013-01-10 08:11:00,
2013-01-10 01:22:00,36.0,21.0,-100.00,West,260,7.0,11.0,55,-99.99,,,0.00,,2013-01-10 08:22:00,
2013-01-10 01:32:00,36.0,21.0,-100.00,West,260,7.0,11.0,55,-99.99,,,0.00,,2013-01-10 08:32:00,
2013-01-10 01:42:00,36.0,21.0,-100.00,West,260,7.0,11.0,55,-99.99,,,0.00,,2013-01-10 08:42:00,
2013-01-10 01:52:00,34.0,21.0,-100.00,WSW,240,4.0,8.0,58,-99.99,,,0.00,,2013-01-10 08:52:00,
2013-01-10 02:02:00,34.0,21.0,-100.00,WSW,240,4.0,8.0,58,-99.99,,,0.00,,2013-01-10 09:02:00,
2013-01-10 02:12:00,32.0,21.0,-100.00,West,270,4.0,6.0,62,-99.99,,,0.00,,2013-01-10 09:12:00,
2013-01-10 02:22:00,32.0,21.0,-100.00,West,270,4.0,6.0,62,-99.99,,,0.00,,2013-01-10 09:22:00,
2013-01-10 02:32:00,32.0,21.0,-100.00,West,270,4.0,6.0,62,-99.99,,,0.00,,2013-01-10 09:32:00,
2013-01-10 02:42:00,32.0,21.0,-100.00,West,270,4.0,6.0,62,-99.99,,,0.00,,2013-01-10 09:42:00,
2013-01-10 02:52:00,31.0,21.0,-100.00,SE,140,0.0,3.0,65,-99.99,,,0.00,,2013-01-10 09:52:00,
2013-01-10 03:02:00,31.0,21.0,-100.00,SE,140,0.0,3.0,65,-99.99,,,0.00,,2013-01-10 10:02:00,
2013-01-10 03:12:00,30.0,21.0,-100.00,West,260,3.0,5.0,67,-99.99,,,0.00,,2013-01-10 10:12:00,
2013-01-10 03:22:00,30.0,21.0,-100.00,West,260,3.0,5.0,67,-99.99,,,0.00,,2013-01-10 10:22:00,
2013-01-10 03:32:00,30.0,21.0,-100.00,West,260,3.0,5.0,67,-99.99,,,0.00,,2013-01-10 10:32:00,
2013-01-10 03:42:00,30.0,21.0,-100.00,West,260,3.0,5.0,67,-99.99,,,0.00,,2013-01-10 10:42:00,
2013-01-10 03:52:00,30.0,21.0,-100.00,North,-999,0.0,0.0,68,-99.99,,,0.00,,2013-01-10 10:52:00,
2013-01-10 04:02:00,30.0,21.0,-100.00,North,-999,0.0,0.0,68,-99.99,,,0.00,,2013-01-10 11:02:00,
2013-01-10 04:12:00,31.0,21.0,-100.00,SE,140,0.0,4.0,66,-99.99,,,0.00,,2013-01-10 11:12:00,
2013-01-10 04:22:00,31.0,21.0,-100.00,SE,140,0.0,4.0,66,-99.99,,,0.00,,2013-01-10 11:22:00,
2013-01-10 04:32:00,31.0,21.0,-100.00,SE,140,0.0,4.0,66,-99.99,,,0.00,,2013-01-10 11:32:00,
2013-01-10 04:42:00,31.0,21.0,-100.00,SE,140,0.0,4.0,66,-99.99,,,0.00,,2013-01-10 11:42:00,
2013-01-10 04:52:00,29.0,21.0,-100.00,North,-999,0.0,0.0,69,-99.99,,,0.00,,2013-01-10 11:52:00,
2013-01-10 05:02:00,29.0,21.0,-100.00,North,-999,0.0,0.0,69,-99.99,,,0.00,,2013-01-10 12:02:00,
2013-01-10 05:12:00,29.0,21.0,-100.00,West,265,3.0,4.0,70,-99.99,,,0.00,,2013-01-10 12:12:00,
2013-01-10 05:22:00,29.0,21.0,-100.00,West,265,3.0,4.0,70,-99.99,,,0.00,,2013-01-10 12:22:00,
2013-01-10 05:32:00,29.0,21.0,-100.00,West,265,3.0,4.0,70,-99.99,,,0.00,,2013-01-10 12:32:00,
2013-01-10 05:42:00,29.0,21.0,-100.00,West,265,3.0,4.0,70,-99.99,,,0.00,,2013-01-10 12:42:00,
2013-01-10 05:52:00,29.0,21.0,-100.00,West,275,3.0,4.0,72,-99.99,,,0.00,,2013-01-10 12:52:00,
2013-01-10 06:02:00,29.0,21.0,-100.00,West,275,3.0,4.0,72,-99.99,,,0.00,,2013-01-10 13:02:00,
2013-01-10 06:12:00,29.0,22.0,-100.00,SSW,205,0.0,1.0,73,-99.99,,,-99.99,,2013-01-10 13:12:00,
2013-01-10 06:22:00,29.0,22.0,-100.00,SSW,205,0.0,1.0,73,-99.99,,,-99.99,,2013-01-10 13:22:00,
2013-01-10 06:52:00,37.0,21.0,-100.00,SW,230,14.0,18.0,52,-99.99,,,0.00,,2013-01-10 13:52:00,
2013-01-10 07:02:00,37.0,21.0,-100.00,SW,230,14.0,18.0,52,-99.99,,,0.00,,2013-01-10 14:02:00,
2013-01-10 07:12:00,36.0,20.0,-100.00,WSW,250,8.0,17.0,51,-99.99,,,0.00,,2013-01-10 14:12:00,
2013-01-10 07:22:00,36.0,20.0,-100.00,WSW,250,8.0,17.0,51,-99.99,,,0.00,,2013-01-10 14:22:00,
2013-01-10 07:32:00,36.0,20.0,-100.00,WSW,250,8.0,17.0,51,-99.99,,,0.00,,2013-01-10 14:32:00,
2013-01-10 07:43:00,36.0,20.0,-100.00,WSW,250,8.0,17.0,51,-99.99,,,0.00,,2013-01-10 14:43:00,
2013-01-10 07:52:00,32.0,19.0,-100.00,SE,145,0.0,4.0,57,-99.99,,,0.00,,2013-01-10 14:52:00,
2013-01-10 08:03:00,32.0,19.0,-100.00,SE,145,0.0,4.0,57,-99.99,,,0.00,,2013-01-10 15:03:00,
2013-01-10 08:12:00,34.0,20.0,-100.00,SW,235,0.0,2.0,56,-99.99,,,0.00,,2013-01-10 15:12:00,
2013-01-10 08:22:00,34.0,20.0,-100.00,SW,235,0.0,2.0,56,-99.99,,,0.00,,2013-01-10 15:22:00,
2013-01-10 08:32:00,34.0,20.0,-100.00,SW,235,0.0,2.0,56,-99.99,,,0.00,,2013-01-10 15:32:00,
2013-01-10 08:43:00,34.0,20.0,-100.00,SW,235,0.0,2.0,56,-99.99,,,0.00,,2013-01-10 15:43:00,
2013-01-10 08:53:00,37.0,20.0,-100.00,WSW,250,9.0,13.0,51,-99.99,,,0.00,,2013-01-10 15:53:00,
2013-01-10 09:02:00,37.0,20.0,-100.00,WSW,250,9.0,13.0,51,-99.99,,,0.00,,2013-01-10 16:02:00,
2013-01-10 09:12:00,39.0,20.0,-100.00,WNW,285,2.0,16.0,46,-99.99,,,0.00,,2013-01-10 16:12:00,
2013-01-10 09:22:00,39.0,20.0,-100.00,WNW,285,2.0,16.0,46,-99.99,,,0.00,,2013-01-10 16:22:00,
2013-01-10 09:33:00,39.0,20.0,-100.00,WNW,285,2.0,16.0,46,-99.99,,,0.00,,2013-01-10 16:33:00,
2013-01-10 09:42:00,39.0,20.0,-100.00,WNW,285,2.0,16.0,46,-99.99,,,0.00,,2013-01-10 16:42:00,
2013-01-10 09:52:00,38.0,19.0,-100.00,ENE,70,4.0,9.0,47,-99.99,,,0.00,,2013-01-10 16:52:00,
2013-01-10 10:02:00,38.0,19.0,-100.00,ENE,70,4.0,9.0,47,-99.99,,,0.00,,2013-01-10 17:02:00,
2013-01-10 10:12:00,38.0,19.0,-100.00,ENE,70,4.0,9.0,47,-99.99,,,0.00,,2013-01-10 17:12:00,
2013-01-10 11:12:00,42.0,21.0,-100.00,SE,125,3.0,4.0,42,-99.99,,,0.00,,2013-01-10 18:12:00,
2013-01-10 11:22:00,42.0,21.0,-100.00,SE,125,3.0,4.0,42,-99.99,,,0.00,,2013-01-10 18:22:00,
2013-01-10 11:33:00,42.0,21.0,-100.00,SE,125,3.0,4.0,42,-99.99,,,0.00,,2013-01-10 18:33:00,
2013-01-10 11:43:00,42.0,21.0,-100.00,SE,125,3.0,4.0,42,-99.99,,,0.00,,2013-01-10 18:43:00,
2013-01-10 11:52:00,48.0,21.0,-100.00,SSE,165,0.0,3.0,35,-99.99,,,0.00,,2013-01-10 18:52:00,
2013-01-10 12:02:00,48.0,21.0,-100.00,SSE,165,0.0,3.0,35,-99.99,,,0.00,,2013-01-10 19:02:00,
2013-01-10 12:12:00,52.0,20.0,-100.00,WSW,250,1.0,2.0,29,-99.99,,,0.00,,2013-01-10 19:12:00,
2013-01-10 12:23:00,52.0,20.0,-100.00,WSW,250,1.0,2.0,29,-99.99,,,0.00,,2013-01-10 19:23:00,
2013-01-10 12:32:00,52.0,20.0,-100.00,WSW,250,1.0,2.0,29,-99.99,,,0.00,,2013-01-10 19:32:00,
2013-01-10 12:43:00,52.0,20.0,-100.00,WSW,250,1.0,2.0,29,-99.99,,,0.00,,2013-01-10 19:43:00,
2013-01-10 12:52:00,51.0,20.0,-100.00,SSE,155,0.0,6.0,29,-99.99,,,0.00,,2013-01-10 19:52:00,
2013-01-10 13:02:00,51.0,20.0,-100.00,SSE,155,0.0,6.0,29,-99.99,,,0.00,,2013-01-10 20:02:00,
2013-01-10 13:12:00,45.0,19.0,-100.00,ENE,70,16.0,22.0,35,-99.99,,,0.00,,2013-01-10 20:12:00,
2013-01-10 13:23:00,45.0,19.0,-100.00,ENE,70,16.0,22.0,35,-99.99,,,0.00,,2013-01-10 20:23:00,
2013-01-10 13:32:00,45.0,19.0,-100.00,ENE,70,16.0,22.0,35,-99.99,,,0.00,,2013-01-10 20:32:00,
2013-01-10 13:42:00,45.0,19.0,-100.00,ENE,70,16.0,22.0,35,-99.99,,,0.00,,2013-01-10 20:42:00,
2013-01-10 13:53:00,43.0,22.0,-100.00,East,80,16.0,19.0,42,-99.99,,,0.00,,2013-01-10 20:53:00,
2013-01-10 14:03:00,43.0,22.0,-100.00,East,80,16.0,19.0,42,-99.99,,,0.00,,2013-01-10 21:03:00,
2013-01-10 14:12:00,41.0,24.0,-100.00,ENE,70,16.0,22.0,49,-99.99,,,0.00,,2013-01-10 21:12:00,
2013-01-10 14:23:00,41.0,24.0,-100.00,ENE,70,16.0,22.0,49,-99.99,,,0.00,,2013-01-10 21:23:00,
2013-01-10 14:33:00,41.0,24.0,-100.00,ENE,70,16.0,22.0,49,-99.99,,,0.00,,2013-01-10 21:33:00,
2013-01-10 14:42:00,41.0,24.0,-100.00,ENE,70,16.0,22.0,49,-99.99,,,0.00,,2013-01-10 21:42:00,
2013-01-10 14:53:00,37.0,24.0,-100.00,ENE,70,23.0,32.0,59,-99.99,,,0.00,,2013-01-10 21:53:00,
2013-01-10 15:03:00,37.0,24.0,-100.00,ENE,70,23.0,32.0,59,-99.99,,,0.00,,2013-01-10 22:03:00,
2013-01-10 15:12:00,37.0,26.0,-100.00,East,85,19.0,26.0,62,-99.99,,,0.00,,2013-01-10 22:12:00,
2013-01-10 15:24:00,37.0,26.0,-100.00,East,85,19.0,26.0,62,-99.99,,,0.00,,2013-01-10 22:24:00,
2013-01-10 15:32:00,37.0,26.0,-100.00,East,85,19.0,26.0,62,-99.99,,,0.00,,2013-01-10 22:32:00,
2013-01-10 15:43:00,37.0,26.0,-100.00,East,85,19.0,26.0,62,-99.99,,,0.00,,2013-01-10 22:43:00,
2013-01-10 16:02:00,35.0,23.0,-100.00,East,95,20.0,27.0,61,-99.99,,,0.00,,2013-01-10 23:02:00,
2013-01-10 16:12:00,32.0,21.0,-100.00,ENE,75,21.0,28.0,62,-99.99,,,0.00,,2013-01-10 23:12:00,
2013-01-10 16:22:00,32.0,21.0,-100.00,ENE,75,21.0,28.0,62,-99.99,,,0.00,,2013-01-10 23:22:00,
2013-01-10 16:32:00,32.0,21.0,-100.00,ENE,75,21.0,28.0,62,-99.99,,,0.00,,2013-01-10 23:32:00,
2013-01-10 16:42:00,32.0,21.0,-100.00,ENE,75,21.0,28.0,62,-99.99,,,0.00,,2013-01-10 23:42:00,
2013-01-10 17:12:00,29.0,17.0,-100.00,East,85,19.0,26.0,61,-99.99,,,0.00,,2013-01-11 00:12:00,
2013-01-10 17:23:00,29.0,17.0,-100.00,East,85,19.0,26.0,61,-99.99,,,0.00,,2013-01-11 00:23:00,
2013-01-10 17:32:00,29.0,17.0,-100.00,East,85,19.0,26.0,61,-99.99,,,0.00,,2013-01-11 00:32:00,
2013-01-10 17:42:00,29.0,17.0,-100.00,East,85,19.0,26.0,61,-99.99,,,0.00,,2013-01-11 00:42:00,
2013-01-10 17:52:00,28.0,17.0,-100.00,East,80,18.0,24.0,64,-99.99,,,0.00,,2013-01-11 00:52:00,
2013-01-10 18:02:00,28.0,17.0,-100.00,East,80,18.0,24.0,64,-99.99,,,0.00,,2013-01-11 01:02:00,
2013-01-10 18:12:00,27.0,18.0,-100.00,ESE,105,13.0,22.0,68,-99.99,,,0.00,,2013-01-11 01:12:00,
2013-01-10 18:22:00,27.0,18.0,-100.00,ESE,105,13.0,22.0,68,-99.99,,,0.00,,2013-01-11 01:22:00,
2013-01-10 18:33:00,27.0,18.0,-100.00,ESE,105,13.0,22.0,68,-99.99,,,0.00,,2013-01-11 01:33:00,
2013-01-10 18:42:00,27.0,18.0,-100.00,ESE,105,13.0,22.0,68,-99.99,,,0.00,,2013-01-11 01:42:00,
2013-01-10 18:52:00,27.0,18.0,-100.00,East,80,12.0,20.0,68,-99.99,,,0.00,,2013-01-11 01:52:00,
2013-01-10 19:02:00,27.0,18.0,-100.00,East,80,12.0,20.0,68,-99.99,,,0.00,,2013-01-11 02:02:00,
2013-01-10 19:12:00,26.0,17.0,-100.00,East,80,14.0,19.0,69,-99.99,,,0.00,,2013-01-11 02:12:00,
2013-01-10 19:22:00,26.0,17.0,-100.00,East,80,14.0,19.0,69,-99.99,,,0.00,,2013-01-11 02:22:00,
2013-01-10 19:33:00,26.0,17.0,-100.00,East,80,14.0,19.0,69,-99.99,,,0.00,,2013-01-11 02:33:00,
2013-01-10 19:42:00,26.0,17.0,-100.00,East,80,14.0,19.0,69,-99.99,,,0.00,,2013-01-11 02:42:00,
2013-01-10 19:53:00,26.0,18.0,-100.00,East,80,10.0,13.0,72,-99.99,,,0.00,,2013-01-11 02:53:00,
2013-01-10 20:02:00,26.0,18.0,-100.00,East,80,10.0,13.0,72,-99.99,,,0.00,,2013-01-11 03:02:00,
2013-01-10 20:12:00,25.0,18.0,-100.00,ENE,60,7.0,12.0,73,-99.99,,,0.00,,2013-01-11 03:12:00,
2013-01-10 20:33:00,25.0,18.0,-100.00,ENE,60,7.0,12.0,73,-99.99,,,0.00,,2013-01-11 03:33:00,
2013-01-10 20:42:00,25.0,18.0,-100.00,ENE,60,7.0,12.0,73,-99.99,,,0.00,,2013-01-11 03:42:00,
2013-01-10 20:52:00,24.0,17.0,-100.00,NE,45,7.0,19.0,74,-99.99,,,0.00,,2013-01-11 03:52:00,
2013-01-10 21:02:00,24.0,17.0,-100.00,NE,45,7.0,19.0,74,-99.99,,,0.00,,2013-01-11 04:02:00,
2013-01-10 21:12:00,24.0,17.0,-100.00,NE,45,9.0,14.0,72,-99.99,,,0.00,,2013-01-11 04:12:00,
2013-01-10 21:22:00,24.0,17.0,-100.00,NE,45,9.0,14.0,72,-99.99,,,0.00,,2013-01-11 04:22:00,
2013-01-10 21:32:00,24.0,17.0,-100.00,NE,45,9.0,14.0,72,-99.99,,,0.00,,2013-01-11 04:32:00,
2013-01-10 21:42:00,24.0,17.0,-100.00,NE,45,9.0,14.0,72,-99.99,,,0.00,,2013-01-11 04:42:00,
2013-01-10 21:52:00,23.0,15.0,-100.00,NNE,20,12.0,17.0,68,-99.99,,,0.00,,2013-01-11 04:52:00,
2013-01-10 22:03:00,23.0,15.0,-100.00,NNE,20,12.0,17.0,68,-99.99,,,0.00,,2013-01-11 05:03:00,
2013-01-10 22:12:00,23.0,14.0,-100.00,NE,55,6.0,15.0,68,-99.99,,,0.00,,2013-01-11 05:12:00,
2013-01-10 22:22:00,23.0,14.0,-100.00,NE,55,6.0,15.0,68,-99.99,,,0.00,,2013-01-11 05:22:00,
2013-01-10 22:33:00,23.0,14.0,-100.00,NE,55,6.0,15.0,68,-99.99,,,0.00,,2013-01-11 05:33:00,
2013-01-10 22:42:00,23.0,14.0,-100.00,NE,55,6.0,15.0,68,-99.99,,,0.00,,2013-01-11 05:42:00,
2013-01-10 22:52:00,23.0,13.0,-100.00,NE,45,8.0,12.0,67,-99.99,,,0.00,,2013-01-11 05:52:00,
2013-01-10 23:02:00,23.0,13.0,-100.00,NE,45,8.0,12.0,67,-99.99,,,0.00,,2013-01-11 06:02:00,
2013-01-10 23:12:00,22.0,11.0,-100.00,NE,45,11.0,15.0,64,-99.99,,,0.00,,2013-01-11 06:12:00,
2013-01-10 23:22:00,22.0,11.0,-100.00,NE,45,11.0,15.0,64,-99.99,,,0.00,,2013-01-11 06:22:00,
2013-01-10 23:32:00,22.0,11.0,-100.00,NE,45,11.0,15.0,64,-99.99,,,0.00,,2013-01-11 06:32:00,
2013-01-10 23:42:00,22.0,11.0,-100.00,NE,45,11.0,15.0,64,-99.99,,,0.00,,2013-01-11 06:42:00,